Meteo orario Abez

Oggi, 20 Giugno, Domenica

Tempo Temperatura Precipitazioni Vento Pressione Umidità
00:00 +6°C° 1.1 mm 8 m/s 739 mm Hg 93%
01:00 +6°C° 1.1 mm 11 m/s 740 mm Hg 93%
02:00 +3°C° 0.8 mm 12 m/s 742 mm Hg 93%
03:00 +2°C° 0.8 mm 12 m/s 744 mm Hg 93%
04:00 0°C° 0 mm 14 m/s 747 mm Hg 93%
05:00 0°C° 0.2 mm 13 m/s 748 mm Hg 88%
06:00 0°C° 0.2 mm 12 m/s 749 mm Hg 83%
07:00 +2°C° 0.2 mm 11 m/s 751 mm Hg 78%
08:00 +3°C° 0.1 mm 10 m/s 752 mm Hg 72%
09:00 +5°C° 0.1 mm 10 m/s 752 mm Hg 65%
10:00 +6°C° 0 mm 9 m/s 753 mm Hg 56%
11:00 +6°C° 0 mm 9 m/s 754 mm Hg 58%
12:00 +6°C° 0 mm 8 m/s 755 mm Hg 60%
13:00 +5°C° 0 mm 8 m/s 756 mm Hg 61%
14:00 +5°C° 0 mm 7 m/s 756 mm Hg 60%
15:00 +5°C° 0 mm 7 m/s 757 mm Hg 59%
16:00 +7°C° 0 mm 6 m/s 757 mm Hg 58%
17:00 +7°C° 0 mm 6 m/s 758 mm Hg 58%
18:00 +7°C° 0 mm 6 m/s 758 mm Hg 59%
19:00 +7°C° 0 mm 5 m/s 758 mm Hg 59%
20:00 +6°C° 0 mm 5 m/s 759 mm Hg 60%
21:00 +6°C° 0 mm 4 m/s 759 mm Hg 62%
22:00 +7°C° 0 mm 3 m/s 759 mm Hg 63%
23:00 +7°C° 0 mm 3 m/s 759 mm Hg 64%

Domani, 21 Giugno, Lunedi

Tempo Temperatura Precipitazioni Vento Pressione Umidità
00:00 +6°C° 0 mm 2 m/s 759 mm Hg 66%
01:00 +6°C° 0 mm 2 m/s 759 mm Hg 67%
02:00 +6°C° 0 mm 2 m/s 759 mm Hg 67%
03:00 +6°C° 0 mm 2 m/s 760 mm Hg 67%
04:00 +7°C° 0 mm 2 m/s 760 mm Hg 68%
05:00 +7°C° 0 mm 2 m/s 760 mm Hg 64%
06:00 +8°C° 0 mm 2 m/s 759 mm Hg 61%
07:00 +9°C° 0 mm 2 m/s 759 mm Hg 58%
08:00 +10°C° 0 mm 2 m/s 759 mm Hg 56%
09:00 +10°C° 0 mm 2 m/s 759 mm Hg 55%
10:00 +12°C° 0 mm 2 m/s 759 mm Hg 54%
11:00 +12°C° 0 mm 2 m/s 759 mm Hg 53%
12:00 +13°C° 0 mm 2 m/s 759 mm Hg 52%
13:00 +14°C° 0 mm 2 m/s 758 mm Hg 50%
14:00 +14°C° 0 mm 2 m/s 758 mm Hg 50%
15:00 +14°C° 0 mm 1 m/s 758 mm Hg 49%
16:00 +14°C° 0 mm 1 m/s 758 mm Hg 49%
17:00 +14°C° 0 mm 1 m/s 758 mm Hg 52%
18:00 +14°C° 0 mm 1 m/s 758 mm Hg 55%
19:00 +13°C° 0 mm 1 m/s 758 mm Hg 58%
20:00 +13°C° 0 mm 1 m/s 758 mm Hg 60%
21:00 +12°C° 0 mm 1 m/s 758 mm Hg 62%
22:00 +12°C° 0 mm 1 m/s 758 mm Hg 64%
23:00 +11°C° 0.1 mm 1 m/s 758 mm Hg 67%

Dopodomani, 22 Giugno, Martedi

Tempo Temperatura Precipitazioni Vento Pressione Umidità
00:00 +11°C° 0.1 mm 1 m/s 758 mm Hg 70%
01:00 +11°C° 0.1 mm 1 m/s 758 mm Hg 73%
02:00 +9°C° 0.1 mm 2 m/s 758 mm Hg 78%
03:00 +9°C° 0.1 mm 3 m/s 758 mm Hg 84%
04:00 +8°C° 0.1 mm 4 m/s 758 mm Hg 89%
05:00 +8°C° 0 mm 4 m/s 758 mm Hg 86%
06:00 +9°C° 0 mm 3 m/s 759 mm Hg 83%
07:00 +9°C° 0 mm 3 m/s 759 mm Hg 81%
08:00 +10°C° 0 mm 3 m/s 759 mm Hg 74%
09:00 +10°C° 0 mm 3 m/s 759 mm Hg 67%
10:00 +11°C° 0 mm 3 m/s 759 mm Hg 61%
11:00 +12°C° 0 mm 3 m/s 759 mm Hg 58%
12:00 +12°C° 0 mm 3 m/s 759 mm Hg 54%
13:00 +13°C° 0 mm 3 m/s 760 mm Hg 51%
14:00 +13°C° 0 mm 3 m/s 760 mm Hg 50%
15:00 +13°C° 0 mm 3 m/s 760 mm Hg 49%
16:00 +15°C° 0 mm 2 m/s 760 mm Hg 48%
17:00 +15°C° 0 mm 2 m/s 760 mm Hg 49%
18:00 +15°C° 0 mm 2 m/s 760 mm Hg 50%
19:00 +14°C° 0 mm 2 m/s 760 mm Hg 51%
20:00 +13°C° 0 mm 2 m/s 760 mm Hg 56%
21:00 +12°C° 0 mm 2 m/s 760 mm Hg 61%
22:00 +10°C° 0 mm 2 m/s 760 mm Hg 66%
23:00 +9°C° 0 mm 2 m/s 760 mm Hg 68%

23 Giugno, Mercoledi

Tempo Temperatura Precipitazioni Vento Pressione Umidità
00:00 +9°C° 0 mm 2 m/s 760 mm Hg 69%
01:00 +8°C° 0 mm 2 m/s 760 mm Hg 71%
02:00 +9°C° 0 mm 2 m/s 760 mm Hg 71%
03:00 +9°C° 0 mm 2 m/s 760 mm Hg 70%
04:00 +10°C° 0 mm 2 m/s 760 mm Hg 70%
05:00 +11°C° 0 mm 3 m/s 760 mm Hg 65%
06:00 +12°C° 0 mm 3 m/s 760 mm Hg 60%
07:00 +14°C° 0 mm 3 m/s 760 mm Hg 55%
08:00 +16°C° 0 mm 3 m/s 759 mm Hg 53%
09:00 +16°C° 0 mm 3 m/s 759 mm Hg 50%
10:00 +17°C° 0 mm 3 m/s 759 mm Hg 47%
11:00 +18°C° 0 mm 2 m/s 759 mm Hg 44%
12:00 +19°C° 0 mm 2 m/s 758 mm Hg 41%
13:00 +20°C° 0 mm 2 m/s 758 mm Hg 38%
14:00 +20°C° 0 mm 2 m/s 758 mm Hg 37%
15:00 +21°C° 0 mm 2 m/s 758 mm Hg 36%
16:00 +21°C° 0 mm 2 m/s 757 mm Hg 35%
17:00 +19°C° 0 mm 2 m/s 757 mm Hg 41%
18:00 +18°C° 0 mm 3 m/s 757 mm Hg 47%
19:00 +17°C° 0 mm 3 m/s 757 mm Hg 53%
20:00 +16°C° 0.1 mm 3 m/s 757 mm Hg 60%
21:00 +15°C° 0.1 mm 2 m/s 756 mm Hg 67%
22:00 +14°C° 0.1 mm 2 m/s 756 mm Hg 73%
23:00 +14°C° 0.1 mm 2 m/s 756 mm Hg 77%

24 Giugno, Giovedi

Tempo Temperatura Precipitazioni Vento Pressione Umidità
00:00 +13°C° 0.1 mm 3 m/s 755 mm Hg 80%
01:00 +13°C° 0.1 mm 3 m/s 755 mm Hg 83%
02:00 +13°C° 0.1 mm 3 m/s 755 mm Hg 83%
03:00 +13°C° 0.1 mm 3 m/s 755 mm Hg 83%
04:00 +13°C° 0.1 mm 3 m/s 754 mm Hg 83%
05:00 +13°C° 0.5 mm 3 m/s 754 mm Hg 85%
06:00 +13°C° 0.5 mm 3 m/s 754 mm Hg 88%
07:00 +13°C° 0.5 mm 3 m/s 753 mm Hg 90%
08:00 +13°C° 1.2 mm 3 m/s 753 mm Hg 90%
09:00 +13°C° 1.2 mm 4 m/s 753 mm Hg 90%
10:00 +13°C° 1.2 mm 4 m/s 753 mm Hg 90%
11:00 +13°C° 1.1 mm 4 m/s 752 mm Hg 91%
12:00 +13°C° 1.1 mm 3 m/s 752 mm Hg 92%
13:00 +13°C° 1.1 mm 3 m/s 752 mm Hg 93%
14:00 +13°C° 3.4 mm 3 m/s 752 mm Hg 94%
15:00 +13°C° 3.4 mm 3 m/s 752 mm Hg 94%
16:00 +12°C° 3.4 mm 3 m/s 752 mm Hg 95%
17:00 +13°C° 0.1 mm 3 m/s 752 mm Hg 94%
18:00 +13°C° 0.1 mm 3 m/s 752 mm Hg 94%
19:00 +14°C° 0.1 mm 2 m/s 752 mm Hg 93%
20:00 +14°C° 0 mm 2 m/s 752 mm Hg 92%
21:00 +14°C° 0 mm 2 m/s 752 mm Hg 92%
22:00 +14°C° 0 mm 2 m/s 752 mm Hg 91%
23:00 +14°C° 0 mm 2 m/s 752 mm Hg 91%

25 Giugno, Venerdi

Tempo Temperatura Precipitazioni Vento Pressione Umidità
00:00 +13°C° 0 mm 2 m/s 752 mm Hg 91%
01:00 +13°C° 0 mm 2 m/s 752 mm Hg 91%
02:00 +13°C° 0 mm 2 m/s 753 mm Hg 90%
03:00 +13°C° 0 mm 2 m/s 753 mm Hg 90%
04:00 +14°C° 0 mm 2 m/s 753 mm Hg 90%
05:00 +14°C° 0 mm 2 m/s 753 mm Hg 88%
06:00 +14°C° 0 mm 2 m/s 753 mm Hg 85%
07:00 +14°C° 0 mm 3 m/s 754 mm Hg 83%
08:00 +16°C° 0 mm 3 m/s 754 mm Hg 78%
09:00 +16°C° 0 mm 3 m/s 754 mm Hg 74%
10:00 +17°C° 0 mm 3 m/s 754 mm Hg 69%
11:00 +18°C° 0 mm 3 m/s 754 mm Hg 67%
12:00 +19°C° 0 mm 3 m/s 754 mm Hg 64%
13:00 +19°C° 0 mm 3 m/s 755 mm Hg 61%
14:00 +20°C° 0 mm 2 m/s 755 mm Hg 61%
15:00 +20°C° 0 mm 2 m/s 755 mm Hg 61%
16:00 +20°C° 0 mm 2 m/s 755 mm Hg 60%
17:00 +21°C° 0 mm 1 m/s 755 mm Hg 61%
18:00 +21°C° 0 mm 1 m/s 755 mm Hg 61%
19:00 +21°C° 0 mm 1 m/s 755 mm Hg 61%
20:00 +20°C° 0 mm 1 m/s 755 mm Hg 66%
21:00 +18°C° 0 mm 2 m/s 755 mm Hg 71%
22:00 +17°C° 0 mm 2 m/s 755 mm Hg 76%
23:00 +16°C° 0 mm 2 m/s 755 mm Hg 75%
Mostrare altro

Abbiamo bisogno del tuo consenso

Meteoprog e i nostri fornitori di servizi possono memorizzare e accedere a dati personali come cookie, identificatori di dispositivi o altre tecnologie simili sul tuo dispositivo e possono elaborare tali dati per personalizzare i contenuti e gli annunci, nonché fornire funzionalità dei social media e analizzarne il traffico.

  • Archiviare e/o accedere alle informazioni sul tuo dispositivo

    Cookie, identificatori di dispositivi o altre informazioni possono essere memorizzati o resi accessibili sul tuo dispositivo per le finalità sopra indicate.

  • Annunci e contenuti personalizzati, misurazione di annunci e contenuti, approfondimenti sul pubblico e sviluppo di prodotti

    Gli annunci e i contenuti possono essere personalizzati in base a un profilo. È possibile aggiungere più dati per personalizzare meglio annunci e contenuti. È possibile misurare il rendimento degli annunci e dei contenuti. È possibile ricavare informazioni sul pubblico che ha visto gli annunci e i contenuti. Tali dati possono essere utilizzati per sviluppare o migliorare l'esperienza, i sistemi e il software dell'utente.

Cliccando su “Accetto”, acconsenti all'uso di cookie, identificatori di dispositivo, web beacon o altre tecnologie simili. Puoi modificare le impostazioni nel browser del tuo dispositivo.

Per determinati scopi, è possibile fare affidamento su interessi legali, piuttosto che sul consenso. Puoi approfondire questo argomento consultando la nostra Informativa sulla privacy e sui cookie.